KI5NYZ Weather Reports


Display with metric or nautical units.
time (UTC)temp
F
wind
direction
speed
MPH
gust
MPH
rain 1hr
in
rain 24hr
in
rain mn
in
humidity
%
barometer
mb
20260503040519 56 225 3.0 4.0 0.00 0.00 0.00 69 1021.4
20260503035519 56 226 3.0 5.0 0.00 0.00 0.00 67 1021.4
20260503034519 56 225 3.0 4.0 0.00 0.00 0.00 67 1021.4
20260503033542 57 235 0.0 3.0 0.00 0.00 0.00 66 1021.3
20260503032522 57 221 0.0 2.0 0.00 0.00 0.00 64 1021.3
20260503031521 58 202 1.0 4.0 0.00 0.00 0.00 62 1021.1
20260503030543 58 204 1.0 3.0 0.00 0.00 0.00 61 1020.9
20260503025520 59 205 1.0 3.0 0.00 0.00 0.00 59 1020.9
20260503024519 60 219 2.0 4.0 0.00 0.00 0.00 57 1020.8
20260503023520 60 221 2.0 5.0 0.00 0.00 0.00 56 1020.7
20260503022520 60 224 2.0 4.0 0.00 0.00 0.00 55 1020.7
20260503021520 61 222 1.0 4.0 0.00 0.00 0.00 54 1020.6
20260503020521 62 232 2.0 4.0 0.00 0.00 0.00 52 1020.6
20260503015522 62 230 2.0 4.0 0.00 0.00 0.00 52 1020.6
20260503014522 63 208 2.0 5.0 0.00 0.00 0.00 50 1020.5
20260503013521 63 203 3.0 6.0 0.00 0.00 0.00 48 1020.4
20260503012541 64 208 2.0 6.0 0.00 0.00 0.00 45 1020.4
20260503011521 65 234 3.0 6.0 0.00 0.00 0.00 43 1020.4
20260503010520 66 235 3.0 7.0 0.00 0.00 0.00 41 1020.4
20260503005520 66 244 4.0 8.0 0.00 0.00 0.00 39 1020.4
20260503004519 67 258 4.0 7.0 0.00 0.00 0.00 39 1020.4
20260503003519 67 259 4.0 6.0 0.00 0.00 0.00 38 1020.3
20260503002519 68 260 4.0 7.0 0.00 0.00 0.00 36 1020.3
20260503001600 68 247 3.0 6.0 0.00 0.00 0.00 36 1020.3
20260503000521 68 256 4.0 6.0 0.00 0.00 0.00 37 1020.3
20260502235541 68 263 3.0 7.0 0.00 0.00 0.00 36 1020.4
20260502234519 69 276 4.0 7.0 0.00 0.00 0.00 36 1020.3
20260502233520 68 288 5.0 10.0 0.00 0.00 0.00 36 1020.4
20260502232532 69 273 4.0 7.0 0.00 0.00 0.00 36 1020.4
20260502231521 69 289 7.0 26.0 0.00 0.00 0.00 35 1020.4
20260502230520 68 268 3.0 7.0 0.00 0.00 0.00 35 1020.4
20260502225521 68 268 4.0 7.0 0.00 0.00 0.00 36 1020.5
20260502224536 69 295 6.0 12.0 0.00 0.00 0.00 35 1020.6
20260502223522 70 168 5.0 30.0 0.00 0.00 0.00 35 1020.6
20260502222543 70 213 3.0 10.0 0.00 0.00 0.00 35 1020.7
20260502221521 68 215 2.0 6.0 0.00 0.01 0.00 36 1020.8
20260502220522 68 257 3.0 7.0 0.00 0.01 0.00 36 1021.0
20260502215519 68 314 5.0 8.0 0.00 0.01 0.00 37 1021.1
20260502214519 67 286 5.0 9.0 0.00 0.01 0.00 37 1021.2
20260502213521 67 267 3.0 7.0 0.00 0.01 0.00 38 1021.4
20260502212519 66 305 5.0 11.0 0.00 0.01 0.00 39 1021.4
20260502211519 67 262 4.0 9.0 0.00 0.01 0.00 38 1021.7
20260502210519 68 231 3.0 7.0 0.00 0.01 0.00 36 1021.8
20260502205519 66 230 2.0 7.0 0.00 0.01 0.00 40 1022.0
20260502204540 67 200 3.0 6.0 0.00 0.01 0.00 39 1022.1
20260502203520 68 274 4.0 8.0 0.00 0.01 0.00 38 1022.2
20260502202520 68 262 4.0 10.0 0.00 0.01 0.00 38 1022.2
20260502201540 67 270 4.0 9.0 0.00 0.01 0.00 38 1022.3
20260502200522 66 298 6.0 11.0 0.00 0.02 0.00 39 1022.4
20260502195541 66 308 4.0 10.0 0.00 0.02 0.00 40 1022.5
20260502194520 67 294 5.0 12.0 0.00 0.02 0.00 39 1022.5
20260502193602 66 340 2.0 7.0 0.00 0.02 0.00 40 1022.6
20260502192541 65 280 6.0 11.0 0.00 0.02 0.00 42 1022.7
20260502191521 64 257 4.0 10.0 0.00 0.02 0.00 43 1022.8
20260502190522 66 251 7.0 13.0 0.00 0.02 0.00 41 1022.9
20260502185521 65 293 5.0 9.0 0.00 0.02 0.00 41 1023.0
20260502184523 65 240 5.0 10.0 0.00 0.03 0.00 41 1023.1
20260502183518 64 287 5.0 10.0 0.00 0.03 0.00 43 1023.2
20260502182519 65 344 4.0 11.0 0.00 0.03 0.00 42 1023.3
20260502181519 65 240 4.0 9.0 0.00 0.03 0.00 42 1023.4
20260502180519 63 253 6.0 10.0 0.00 0.04 0.00 44 1023.5
20260502170521 62 271 7.0 11.0 0.00 0.06 0.00 50 1023.9
20260502163521 60 318 3.0 5.0 0.00 0.06 0.00 52 1024.0
20260502162521 60 261 4.0 8.0 0.00 0.06 0.00 55 1024.1
20260502161541 59 245 3.0 7.0 0.00 0.07 0.00 55 1024.1
20260502160523 59 246 2.0 6.0 0.00 0.07 0.00 57 1024.1
20260502151518 57 29 1.0 3.0 0.00 0.08 0.00 60 1024.0
20260502150521 57 283 1.0 3.0 0.00 0.09 0.00 59 1024.0
20260502130521 49 8 4.0 6.0 0.00 0.17 0.00 77 1023.0
20260502123521 48 350 3.0 4.0 0.00 0.18 0.00 80 1022.5
20260502122541 48 4 3.0 5.0 0.00 0.18 0.00 81 1022.4
20260502121521 47 357 2.0 4.0 0.00 0.19 0.00 81 1022.3
20260502120523 47 360 3.0 5.0 0.00 0.19 0.00 81 1022.3
20260502115519 47 1 3.0 4.0 0.00 0.19 0.00 82 1022.3
20260502113518 47 354 3.0 5.0 0.00 0.19 0.00 83 1022.2
20260502112544 47 359 3.0 5.0 0.00 0.20 0.00 84 1022.1
20260502111519 48 346 4.0 5.0 0.00 0.20 0.00 84 1022.1
20260502110535 48 348 3.0 5.0 0.00 0.20 0.00 85 1022.0
20260502105521 48 343 4.0 5.0 0.00 0.20 0.00 84 1021.8
20260502104520 49 337 3.0 4.0 0.00 0.20 0.00 85 1021.8
20260502103521 49 343 3.0 3.0 0.00 0.21 0.00 85 1021.7
20260502102540 49 346 2.0 4.0 0.00 0.21 0.00 86 1021.7
20260502101519 49 339 3.0 5.0 0.00 0.21 0.00 85 1021.7
20260502100520 50 333 3.0 5.0 0.00 0.21 0.00 85 1021.7
20260502090520 51 338 2.0 3.0 0.00 0.21 0.00 72 1021.2
20260502071519 50 247 0.0 1.0 0.00 0.21 0.00 77 1021.8
20260502070519 50 0 0.0 0.0 0.00 0.21 0.00 76 1021.8
20260502065520 50 163 0.0 1.0 0.00 0.21 0.00 75 1021.7
20260502064523 50 134 0.0 2.0 0.00 0.21 0.00 74 1021.7
20260502063521 51 129 0.0 2.0 0.00 0.21 0.00 71 1021.6
20260502062523 51 117 1.0 2.0 0.00 0.21 0.00 72 1021.6
20260502061520 51 136 0.0 2.0 0.00 0.21 0.00 72 1021.7
20260502060521 51 85 0.0 0.0 0.00 0.21 0.00 73 1021.7
20260502055521 51 49 0.0 1.0 0.00 0.21 0.00 74 1021.7
20260502054521 51 43 0.0 1.0 0.00 0.21 0.00 73 1021.7
20260502053523 51 0 0.0 0.0 0.00 0.21 0.00 72 1021.8
20260502052524 51 353 0.0 0.0 0.00 0.21 0.00 72 1021.8
20260502051521 51 337 0.0 1.0 0.00 0.21 0.00 72 1021.7
20260502050522 51 321 0.0 1.0 0.00 0.21 0.00 73 1021.6
20260502045522 51 356 1.0 2.0 0.00 0.21 0.21 72 1021.4
20260502043519 51 15 0.0 3.0 0.00 0.21 0.21 74 1021.1
20260502042541 51 14 2.0 3.0 0.00 0.21 0.21 77 1020.8
20260502041519 52 0 0.0 0.0 0.00 0.21 0.21 76 1020.6